TOPSWRTT 000
TTAA00 KICT 200712

Wichita AWIPS Roundup
National Weather Service Wichita KS
200 AM CDT SAT SEP 20 2014

....Central Kansas....
  
CITY           SKY/WX    TMP DP  RH WIND       PRES   REMARKS
RUSSELL        CLEAR     71  61  70 S15       29.91F                  
SALINA         CLEAR     73  66  78 S13       29.93S                  
GREAT BEND     CLEAR     72  61  68 S16       29.95S                  
ELLSWORTH      CLEAR     72  64  78 S12G18    29.93S                  
MCPHERSON      CLEAR     70  66  88 S9        29.96R                  
HAYS           CLEAR     70  57  64 S14       29.93F                  

....South Central Kansas....
  
CITY           SKY/WX    TMP DP  RH WIND       PRES   REMARKS
HUTCHINSON     CLEAR     71  63  75 S9        29.96S                  
NEWTON         CLEAR     68  63  83 S9        29.99F                  
KINGMAN        CLEAR     72  66  83 S7        29.98R                  
WICHITA (ICT)  PTCLDY    71  67  87 S9        29.97S                  
JABARA ARPT    CLEAR     70  67  90 S10       29.97S                  
MCCONNELL AFB  CLEAR     70  70 100 S10       29.98S                  
EL DORADO      FAIR      70  68  94 S8        29.98S FOG              
HARPER           N/A     72  66  83 SE5       30.00S                  
WELLINGTON     CLEAR     72  70  94 S8        29.99R FOG              
WINFIELD       PTCLDY    69  68  96 S6        29.99R FOG              
 
....Southeast Kansas....
  
CITY           SKY/WX    TMP DP  RH WIND       PRES   REMARKS
EUREKA         CLEAR     68  66  94 S7        29.98R FOG              
CHANUTE        CLEAR     67  66  97 S8        29.98S FOG              
PARSONS        CLEAR     68  67  96 CALM      29.99S FOG              
COFFEYVILLE    CLEAR     67  66  97 CALM      29.97F FOG              
INDEPENDENCE     N/A     64  63  94 CALM      29.97S FOG              
FORT SCOTT     CLEAR     68  68 100 S5        29.97S FOG              
PITTSBURG      CLEAR     69  69 100 S3        29.99R FOG              

....Western Kansas....
  
CITY           SKY/WX    TMP DP  RH WIND       PRES   REMARKS
GOODLAND       PTCLDY    66  61  84 W9        30.00R                  
HILL CITY      CLEAR     73  59  61 SW8       29.93R                  
LIBERAL        CLEAR     64  57  77 S7        30.02S                  
GARDEN CITY    CLEAR     63  59  87 S9        29.98R                  
DODGE CITY     CLEAR     68  58  70 S10       29.99R                  
PRATT          CLEAR     70  59  68 S9        29.99S                  
MEDICINE LODGE   N/A     70  63  78 SE3       29.98R                  

....Northeast Kansas....
  
CITY           SKY/WX    TMP DP  RH WIND       PRES   REMARKS
CONCORDIA      CLEAR     71  65  81 S21G30    29.89S                  
TOPEKA         PTCLDY    70  68  93 S12       29.93S                  
MANHATTAN      CLEAR     71  68  90 SW8       29.92S                  
LAWRENCE       CLEAR     68  65  90 S6        29.94S FOG              
OLATHE         CLEAR     68  67  96 S9        29.95S FOG              
EMPORIA        CLEAR     68  67  96 S14       29.96S FOG              

....Oklahoma....
  
CITY           SKY/WX    TMP DP  RH WIND       PRES   REMARKS
GAGE           CLEAR     68  63  84 S8        29.99S                  
PONCA CITY     PTCLDY    74  69  85 S7        29.97S                  
BARTLESVILLE   FOG       63  63 100 CALM      29.98F VSB 1/4          
TULSA          CLEAR     73  69  87 S6        29.96S                  
OKLAHOMA CITY  PTCLDY    70  67  90 S5        29.99R                  

Note: "fair" indicates few or no clouds below 12,000 feet with no
significant weather and/or obstructions to visibility.
  

USA.gov is the U.S. government's official web portal to all federal, state and local government web resources and services.